Prestwick, United Kingdom

1:59 AM GMT on December 12, 2017 (GMT +0000)
Prestwick

Weather History for EGPK - August, 2013

Change the Weather History Date:

Sunday, August 4, 2013

  Actual Average Record
Temperature  
Mean Temperature 60 °F -  
Max Temperature 68 °F 64 °F 77 °F (1999)
Min Temperature 53 °F 50 °F 48 °F (1997)
Degree Days  
Heating Degree Days 4    
Growing Degree Days 10 (Base 50)    
Moisture  
Dew Point 54 °F    
Average Humidity 77    
Maximum Humidity 94    
Minimum Humidity 56    
Precipitation  
Precipitation 0.00 in - - ()
Sea Level Pressure  
Sea Level Pressure 29.89 in    
Wind  
Wind Speed 7 mph ()    
Max Wind Speed 15 mph    
Max Gust Speed 25 mph    
Visibility 6.2 miles    
Events Rain    
Averages and records for this station are not official NWS values.
T = Trace of Precipitation, MM = Missing Value Source: Averaged Metar Reports

Daily Weather History Graph

Daily Weather History Graph

Search for Another Location

Airport or City:

Trip Planner

Search our weather history database for the weather conditions in past years. The results will help you decide how hot, cold, wet, or windy it might be!

Date:

Astronomy

Aug. 04, 2013 Rise Set
Actual Time 5:30 AM BST 9:17 PM BST
Civil Twilight 4:44 AM BST 10:02 PM BST
Nautical Twilight 3:37 AM BST 11:08 PM BST
Astronomical Twilight 1:56 AM BST 12:51 AM BST
Moon 3:14 AM BST (8/4) 7:31 PM BST (8/4)
Length of Visible Light 17h 18m
Length of Day
15h 46m
Waning Crescent, 6% of the Moon is Illuminated
Aug 4
Waning Crescent
Aug 6
New
Aug 14
First Quarter
Aug 21
Full
Aug 28
Last Quarter

Hourly Weather History & Observations

Time (BST) Temp. Dew Point Humidity Pressure Visibility Wind Dir Wind Speed Gust Speed Precip Events Conditions
12:20 AM 53.6 °F 50.0 °F 88% 29.86 in 6.2 mi SSW 5.8 mph - N/A   Scattered Clouds
12:50 AM 55.4 °F 50.0 °F 82% 29.86 in 6.2 mi South 6.9 mph - N/A   Scattered Clouds
1:50 AM 55.4 °F 51.8 °F 88% 29.86 in 6.2 mi South 5.8 mph - N/A   Scattered Clouds
2:50 AM 53.6 °F 51.8 °F 94% 29.86 in 6.2 mi South 4.6 mph - N/A   Partly Cloudy
3:50 AM 55.4 °F 51.8 °F 88% 29.86 in 6.2 mi South 4.6 mph - N/A   Partly Cloudy
4:50 AM 55.4 °F 53.6 °F 94% 29.86 in 6.2 mi South 4.6 mph - N/A Rain Light Rain Showers
5:50 AM 57.2 °F 53.6 °F 88% 29.86 in 6.2 mi SSW 8.1 mph - N/A   Mostly Cloudy
6:50 AM 57.2 °F 53.6 °F 88% 29.86 in 6.2 mi South 4.6 mph - N/A   Scattered Clouds
7:20 AM 57.2 °F 53.6 °F 88% 29.86 in 6.2 mi South 6.9 mph - N/A   Scattered Clouds
7:50 AM 57.2 °F 53.6 °F 88% 29.89 in 6.2 mi South 6.9 mph - N/A   Mostly Cloudy
8:20 AM 59.0 °F 55.4 °F 88% 29.89 in 6.2 mi South 5.8 mph - N/A   Scattered Clouds
8:50 AM 60.8 °F 55.4 °F 82% 29.89 in 6.2 mi SW 11.5 mph 25.3 mph N/A   Scattered Clouds
9:20 AM 60.8 °F 53.6 °F 77% 29.89 in 6.2 mi SW 12.7 mph - N/A   Scattered Clouds
9:50 AM 60.8 °F 55.4 °F 82% 29.89 in 6.2 mi SW 12.7 mph - N/A   Partly Cloudy
10:20 AM 60.8 °F 55.4 °F 82% 29.89 in 6.2 mi WSW 13.8 mph - N/A   Partly Cloudy
10:50 AM 60.8 °F 55.4 °F 82% 29.89 in 6.2 mi WSW 15.0 mph - N/A   Partly Cloudy
11:20 AM 60.8 °F 53.6 °F 77% 29.92 in 6.2 mi WSW 15.0 mph - N/A   Partly Cloudy
11:50 AM 62.6 °F 53.6 °F 72% 29.92 in 6.2 mi WSW 12.7 mph - N/A   Partly Cloudy
12:20 PM 64.4 °F 53.6 °F 68% 29.92 in 6.2 mi WSW 13.8 mph - N/A   Partly Cloudy
12:50 PM 64.4 °F 53.6 °F 68% 29.92 in 6.2 mi WSW 15.0 mph - N/A   Partly Cloudy
1:20 PM 64.4 °F 55.4 °F 73% 29.92 in 6.2 mi WSW 12.7 mph - N/A   Partly Cloudy
1:50 PM 64.4 °F 55.4 °F 73% 29.92 in 6.2 mi WSW 13.8 mph - N/A   Partly Cloudy
2:20 PM 66.2 °F 55.4 °F 68% 29.92 in 6.2 mi WSW 12.7 mph - N/A   Partly Cloudy
2:50 PM 66.2 °F 53.6 °F 64% 29.92 in 6.2 mi WSW 10.4 mph - N/A   Partly Cloudy
3:20 PM 68.0 °F 55.4 °F 64% 29.92 in 6.2 mi WSW 9.2 mph - N/A   Partly Cloudy
3:50 PM 68.0 °F 53.6 °F 60% 29.89 in 6.2 mi WSW 11.5 mph - N/A   Partly Cloudy
4:20 PM 68.0 °F 55.4 °F 64% 29.89 in 6.2 mi WSW 10.4 mph - N/A   Partly Cloudy
4:50 PM 66.2 °F 55.4 °F 68% 29.89 in 6.2 mi WSW 9.2 mph - N/A   Partly Cloudy
5:20 PM 68.0 °F 55.4 °F 64% 29.89 in 6.2 mi WSW 6.9 mph - N/A   Partly Cloudy
5:50 PM 68.0 °F 53.6 °F 60% 29.89 in 6.2 mi WSW 5.8 mph - N/A   Partly Cloudy
6:20 PM 68.0 °F 51.8 °F 56% 29.89 in 6.2 mi South 9.2 mph - N/A   Partly Cloudy
6:50 PM 66.2 °F 57.2 °F 73% 29.89 in 6.2 mi Variable 3.5 mph - N/A   Partly Cloudy
7:20 PM 66.2 °F 55.4 °F 68% 29.89 in 6.2 mi WNW 5.8 mph - N/A   Partly Cloudy
7:50 PM 66.2 °F 55.4 °F 68% 29.89 in 6.2 mi WNW 5.8 mph - N/A   Partly Cloudy
8:20 PM 64.4 °F 53.6 °F 68% 29.89 in 6.2 mi NNW 3.5 mph - N/A   Partly Cloudy
8:50 PM 62.6 °F 53.6 °F 72% 29.89 in 6.2 mi NW 3.5 mph - N/A   Partly Cloudy
9:20 PM 60.8 °F 53.6 °F 77% 29.89 in 6.2 mi North 3.5 mph - N/A   Partly Cloudy
9:50 PM 59.0 °F 53.6 °F 82% 29.89 in 6.2 mi Calm Calm - N/A   Partly Cloudy
10:20 PM 55.4 °F 51.8 °F 88% 29.89 in 6.2 mi NNE 2.3 mph - N/A   Partly Cloudy
10:50 PM 55.4 °F 51.8 °F 88% 29.89 in 6.2 mi Calm Calm - N/A   Partly Cloudy
11:20 PM 55.4 °F 51.8 °F 88% 29.89 in 6.2 mi Calm Calm - N/A   Partly Cloudy
11:50 PM 53.6 °F 50.0 °F 88% 29.89 in 6.2 mi Calm Calm - N/A   Partly Cloudy